Regional Weather Roundup
Issued by NWS

Home | Current Version | Previous Version | Graphics & Text | Print | Product List | Glossary On
Versions: 1 2 3 4 5 6 7 8 9 10 11 12 13 14 15 16 17 18 19 20 21 22 23 24 25 26 27 28 29 30 31 32 33 34 35 36 37 38 39 40 41 42 43 44 45 46 47 48 49 50
000
ASUS43 KLSX 230057
RWRMO

WEATHER SUMMARY FOR MISSOURI
NATIONAL WEATHER SERVICE SPRINGFIELD MO
800 PM CDT THU JUN 22 2017

NOTE: "FAIR" INDICATES FEW OR NO CLOUDS BELOW 12,000 FEET WITH NO
       SIGNIFICANT WEATHER AND/OR OBSTRUCTIONS TO VISIBILITY.
       CURRENT SKY AND/OR WEATHER CONDITIONS ARE NOT AVAILABLE FOR
       CHILLICOTHE AND FARMINGTON.

MOZ001>031-035>038-043-044-053-054-230200-
...NORTHERN AND WESTERN MISSOURI...

CITY           SKY/WX    TMP DP  RH WIND       PRES   REMARKS
KANSAS CTY INT PTCLDY    82  72  71 SW7       29.67R
LEE`S SUMMIT   CLEAR     83  74  74 S13       29.66S
ST JOSEPH      PTCLDY    84  73  69 S7        29.66R HX  90
CHILLICOTHE      N/A     83  73  72 S3        29.69R

$$
MOZ066>068-077>081-088>096-101>105-230200-
...SOUTHWEST MISSOURI...

CITY           SKY/WX    TMP DP  RH WIND       PRES   REMARKS
SPRINGFIELD    PTCLDY    83  71  67 SE10      29.71S
JOPLIN         MOCLDY    84  76  76 S6        29.69R HX  93
BRANSON        MOCLDY    79  72  78 SE14      29.74S

$$
MOZ032>034-039>042-045>050-055>058-069>072-230200-
...CENTRAL MISSOURI...

CITY           SKY/WX    TMP DP  RH WIND       PRES   REMARKS
COLUMBIA       NOT AVBL
JEFFERSON CITY CLOUDY    84  73  69 SE6       29.69S HX  90
ROLLA          PTCLDY    81  73  76 SE9       29.73S
SEDALIA        CLEAR     82  75  79 SE10      29.70F
WARRENSBURG    CLEAR     81  72  74 SE9       29.67F

$$
MOZ051-052-059>065-230200-
...EAST CENTRAL MISSOURI...

CITY           SKY/WX    TMP DP  RH WIND       PRES   REMARKS
ST LOUIS INTL  CLOUDY    85  71  63 SE14      29.74S HX  90

$$
MOZ072>076-082>087-097>100-106>115-230200-
...SOUTH CENTRAL AND SOUTHEAST MISSOURI...

CITY           SKY/WX    TMP DP  RH WIND       PRES   REMARKS
CAPE GIRARDEAU MOCLDY    80  75  84 E5        29.75S
POPLAR BLUFF   CLOUDY    79  78  97 CALM      29.74R
WEST PLAINS    MOCLDY    78  72  81 S9        29.77R

$$


USA.gov is the U.S. government's official web portal to all federal, state and local government web resources and services.